SKY MUSTER 2 (NBN1B)

Last updated on Thu Oct 30 2025 00:02:50 GMT+0000 (Coordinated Universal Time)

1 41794U 16060B 25302.53377932 -.00000234 00000+0 00000+0 0 9997 2 41794 0.0134 264.6846 0001526 303.4594 166.9599 1.00269936 33202
UTC large
Height (km)
Speed (km/s)
/
Latitude / Longitude
Inclination (degrees)
Orbital Period (minutes)
Azimuth
Elevation
Range (km)
Doppler Factor

Next 0 passes for location: London (51.5072 / 0.1276)

Sorry there are no passes over London.